Torna al catalogo

ONEWEB-0515

AttivoComunicazioniPO
NORAD 54133·PAYLOAD·🇬🇧 United Kingdom

Lanciato Oct 22, 2022 da Satish Dhawan Space Centre

Loading…

Prossimi Passaggi (prossime 24 ore)

TLE

AggiornatoSource: CelesTrak SupGP

Epoca: Sep 14, 2026, 21:34 UTC

1 54133C 22138W   26257.89877732  .00002134  00000+0  52552-2 0  2572
2 54133  87.9147 256.5385 0001236 102.5559 297.6048 13.20771328    18

Traccia ONEWEB-0515 in tempo reale con AllMySat

Download on the App Store